Regional Weather Roundup
Issued by NWS

Home | Current Version | Previous Version | Text Only | Print | Product List | Glossary On
Versions: 1 2 3 4 5 6 7 8 9 10 11 12 13 14 15 16 17 18 19 20 21 22 23 24 25 26 27 28 29 30 31 32 33 34 35 36 37 38 39 40 41 42 43 44 45 46 47 48 49 50
000
ASUS43 KMKX 250100
RWRWI

WISCONSIN REGIONAL WEATHER ROUNDUP
NATIONAL WEATHER SERVICE MILWAUKEE/SULLIVAN WI
700 PM CST FRI FEB 24 2017

NOTE: "FAIR" INDICATES FEW OR NO CLOUDS BELOW 12,000 FEET WITH NO
SIGNIFICANT WEATHER AND/OR OBSTRUCTIONS TO VISIBILITY.

WIZ001-002-006>008-014>016-023>028-250200-
NORTHWEST WISCONSIN

CITY           SKY/WX    TMP DP  RH WIND       PRES   REMARKS
SUPERIOR ARPT  CLOUDY    21   9  61 N8        29.91R WCI  11
ASHLAND        CLOUDY    19  10  68 N10       29.86F WCI   7
HAYWARD        CLOUDY    19   8  62 N12       29.82S WCI   7
SIREN          CLOUDY    22  10  60 N15       29.86S WCI   9
CUMBERLAND     CLOUDY    19  10  68 N14G21    29.81S WCI   6
RICE LAKE      LGT SNOW  19  11  68 N14G22    29.82S WCI   6
CHETEK         LGT SNOW  19  13  79 N7G18     29.81R WCI   9
LADYSMITH      LGT SNOW  19  14  82 N20G26    29.78R WCI   2
EAU CLAIRE     NOT AVBL
MENOMONIE      LGT SNOW  21  17  84 NW12G18   29.81R WCI   9
NEW RICHMOND   CLOUDY    23  12  62 N14       29.84R WCI  10
OSCEOLA        CLOUDY    24  12  61 N15G23    29.88R WCI  11
$$

WIZ003>005-009-010-017-018-250200-
NORTH CENTRAL WISCONSIN

CITY           SKY/WX    TMP DP  RH WIND       PRES   REMARKS
MANITOWISH WTR LGT SNOW  16  14  91 N13G18    29.70S WCI   2
ARBOR VITAE    LGT SNOW  19  15  82 N10G24      N/A  WCI   8
WOODRUFF       LGT SNOW  19  15  82 N10G24      N/A  WCI   8
RHINELANDER    FLURRIES  19  13  77 N9G16     29.67S WCI   8
EAGLE RIVER    LGT SNOW  17  12  82 N8        29.67S WCI   6
LAND O LAKES   LGT SNOW  17  14  88 N12G18    29.69F VSB 1   WCI   4
PHILLIPS       LGT SNOW  17  13  86 N13G21    29.72R WCI   3
TOMAHAWK       LGT SNOW  18  14  82 N8        29.68S WCI   8
MEDFORD        LGT SNOW  18  14  83 N16G22    29.67S WCI   4
MERRILL        NOT AVBL
$$

WIZ029-030-035-036-043>047-250200-
CENTRAL WISCONSIN

CITY           SKY/WX    TMP DP  RH WIND       PRES   REMARKS
WAUSAU         FLURRIES  20  14  77 N16G24    29.65R WCI   6
MOSINEE        CLOUDY    21  18  86 N18G24    29.66R WCI   6
MARSHFIELD     LGT SNOW  21  15  78 N15G24    29.66R WCI   8
STEVENS POINT  CLOUDY    22  19  89 N8        29.65R WCI  12
WAUPACA        CLOUDY    27  24  87 N10       29.63R FOG     WCI  17
WAUTOMA        LGT SNOW  26  24  92 NW9       29.64  FOG     WCI  17
WISC RAPIDS    LGT SNOW  23  20  88 N15       29.67R FOG     WCI  10
CAMP DOUGLAS   MIX PCPN  25  21  86 N9        29.67R WCI  15
$$

WIZ011>013-019>022-031-037>040-048>050-250200-
NORTHEAST WISCONSIN

CITY           SKY/WX    TMP DP  RH WIND       PRES   REMARKS
ANTIGO         CLOUDY    19  15  86 N20G28    29.62S WCI   2
SHAWANO        CLOUDY    26  23  87 N14G21    29.63R FOG     WCI  14
OCONTO         CLOUDY    25  23  92 N13       29.60S WCI  13
STURGEON BAY   MIX PCPN  26  25  96 MISG      29.56F FOG
GREEN BAY      LGT SNOW  26  25  96 N15G29    29.59S FOG     WCI  14
MANITOWOC      NOT AVBL
APPLETON       CLOUDY    25  25 100 N12       29.57R WCI  14
CLINTONVILLE   MIX PCPN  27  23  86 N9        29.62R WCI  17
OSHKOSH        CLOUDY    26  23  88 N21       29.59R FOG     WCI  12
$$

WIZ032>034-041-042-053>061-250200-
SOUTHWEST WISCONSIN

CITY           SKY/WX    TMP DP  RH WIND       PRES   REMARKS
LA CROSSE      LGT SNOW  26  21  81 N18       29.74R WCI  13
SPARTA         LGT SNOW  25  22  89 N9        29.71R WCI  16
VIROQUA        CLOUDY    25  23  92 N9        29.67R WCI  15
BOSCOBEL       FLURRIES  29  23  78 N7        29.69R WCI  22
PRAIRIE DU CHI LGT SNOW  28  26  89 NW8       29.70R WCI  20
PLATTEVILLE    CLOUDY    29  29 100 N5        29.65R WCI  24
$$

WIZ056-057-062-063-064-067-068-250200-
SOUTH CENTRAL WISCONSIN

CITY           SKY/WX    TMP DP  RH WIND       PRES   REMARKS
REEDSBURG      CLOUDY    26  25  96 N12       29.65R FOG     WCI  15
BARABOO/DELLS  MIX PCPN  26  25  95 N8        29.63R WCI  18
LONE ROCK      LGT SNOW  28  24  85 N8G17     29.66S FOG     WCI  20
MINERAL POINT  CLOUDY    30  30 100 N3        29.62S FOG
MADISON        FLURRIES  27  25  92 N10G21    29.61R WCI  17
MIDDLETON      CLOUDY    29  28  96 N5        29.62R WCI  24
WATERTOWN      CLOUDY    28  28 100 N10       29.57S FOG     WCI  19
MONROE         CLOUDY    30  28  93 N8        29.59S WCI  23
JANESVILLE     CLOUDY    30  30 100 N15G21    29.58R FOG     WCI  19
$$

WIZ051-052-058>065-066-070>072-250200-
SOUTHEAST WISCONSIN

CITY           SKY/WX    TMP DP  RH WIND       PRES   REMARKS
MILWAUKEE      DRIZZLE   33  30  88 NW10      29.54R FOG     WCI  25
WAUKESHA       NOT AVBL
MILWAUKEE/TIMM MIX PCPN  30  28  93 NW8       29.56R WCI  23
RACINE         CLOUDY    33  31  92 NW9       29.55R FOG     WCI  25
KENOSHA        CLOUDY    34  32  92 NW7       29.54R FOG     WCI  28
FOND DU LAC    LGT SNOW  27  23  85 N15G24    29.59R FOG     WCI  15
SHEBOYGAN      CLOUDY    28  25  88 N16G23    29.54R FOG     WCI  16
WEST BEND      MIX PCPN  30  30 100 N3        29.55R
JUNEAU         MIX PCPN  27  25  94 N8        29.58S WCI  19
$$

LSZ147-162-250200-
LAKE SUPERIOR

STATION/POSITION TIME  TEMP    WIND        PRES    WAVE
                       AIR SEA DIR/SP/G            HT/PER
                 (UTC) (F)     (DEG/KT/KT) (MB)    (FT/S)
DEVILS ISLAND    0000   21      10/ 16/ 18 1013.2F
PORT WING        0040   23      10/ 16/ 20 1012.2S
SAXON HARBOR     0030   22      10/ 20/ 26 1010.5F
$$

LMZ867-665-643>646-250200-
LAKE MICHIGAN

STATION/POSITION TIME  TEMP    WIND        PRES    WAVE
                       AIR SEA DIR/SP/G            HT/PER
                 (UTC) (F)     (DEG/KT/KT) (MB)    (FT/S)
CHAMBERS ISLAND  0030   26     350/  4/  5 1002.0R
NORTHPORT PIER   0040   27     360/  5/  5 1002.7R
SISTER BAY       0005   27        CALM       N/A
KEWAUNEE LAKESHO 0030   27     360/ 14/ 20 1000.4F
SHEBOYGAN LAKESH 0000   31     360/  9/ 11 1000.2R
PORT WASHINGTON  0040   31     330/  8/ 15 1001.7R
MILWAUKEE LAKESH 0030   32     300/ 10/ 13   N/A
KENOSHA   LAKESH 0000   35     340/ 10/ 12 1000.3
$$

TC  - TEMPERATURE IN CELSIUS
VSB - VISIBILITY IN STATUTE MILES
WCI - WIND CHILL INDEX
HX  - HEAT INDEX




USA.gov is the U.S. government's official web portal to all federal, state and local government web resources and services.